Location: Newark
(48.2400°N, 16.4108°E)
Time: 04:24:28
(UTC+00:00)

ISS - Visible Passes

Search period start: 26 May 2020 00:00
Search period end: 05 June 2020 00:00
Orbit: 417 x 420 km, 51.6° (Epoch: 26 May)

Date Brightness Start Highest point End Pass type
(mag) Time Alt. Az. Time Alt. Az. Time Alt. Az.
26 May -2.9 19:34:27 10° WNW 19:37:45 50° N 19:41:03 10° E visible
26 May -3.7 21:11:17 10° WNW 21:14:37 58° SSW 21:15:06 51° S visible
27 May -3.8 20:23:27 10° WNW 20:26:50 83° SSW 20:28:52 22° ESE visible
27 May -1.4 22:00:53 10° W 22:01:47 14° WSW 22:01:47 14° WSW visible
28 May -3.6 19:35:38 10° WNW 19:39:01 74° NNE 19:42:23 10° ESE visible
28 May -2.5 21:12:41 10° W 21:15:35 26° SW 21:15:35 26° SW visible
29 May -3.1 20:24:41 10° WNW 20:27:52 40° SSW 20:29:25 24° SSE visible
30 May -3.5 19:36:47 10° WNW 19:40:06 59° SSW 19:43:15 11° SE visible
30 May -1.3 21:15:04 10° WSW 21:16:11 12° SW 21:16:11 12° SW visible
31 May -1.8 20:26:18 10° W 20:28:41 18° SW 20:30:04 14° SSW visible
01 Jun -2.3 19:38:05 10° W 19:41:00 27° SW 19:43:53 10° SSE visible
03 Jun -1.2 19:40:18 10° WSW 19:41:38 12° SW 19:42:59 10° SSW visible
